Retour au catalogue

DELTA 1 DEB

ActifSSO
NORAD 7013·DEBRIS·🇺🇸 United States

Lancé Nov 6, 1973 depuis Vandenberg Space Force Base

Loading…

Prochains Passages (prochaines 24 heures)

TLE

FraisSource: Space-Track

Époque: Sep 14, 2026, 12:41 UTC

1 07013U 73086D   26257.52913291 -.00000014  00000-0  21061-3 0  9998
2 07013 102.0161 270.0744 0068929 294.6712 220.9192 12.51888250413578

Suivez DELTA 1 DEB en temps réel avec AllMySat

Download on the App Store